Tracking 30922 objects as of 2-Jul-2025
HD Live streaming from Space Station
objects crossing your sky now

STARLINK-3460

Track STARLINK-3460 now!
10-day predictions
STARLINK-3460 is classified as:


NORAD ID: 51755
Int'l Code: 2022-016AT
Perigee: 546.1 km
Apogee: 547.7 km
Inclination: 53.2 °
Period: 95.4 minutes
Semi major axis: 6917 km
RCS: Unknown
Launch date: February 21, 2022
Source: United States (US)
Launch site: AIR FORCE EASTERN TEST RANGE (AFETR)
Your satellite tracking list
Your tracking list is empty




NASA's NSSDC Master Catalog

Two Line Element Set (TLE):
1 51755U 22016AT  25182.77613728 -.00000162  00000-0  79051-5 0  9990
2 51755  53.2187 355.5163 0001189  88.6368 271.4761 15.08836608185824
Source of the keplerian elements: AFSPC